IDEFIX & ARIANE 42P R/B

Last updated on Sat Apr 13 2024 01:02:09 GMT+0100 (British Summer Time)

1 27422U 02021B 24103.45299688 .00000401 00000+0 17171-3 0 9997 2 27422 98.5232 42.4717 0013298 78.3416 281.9258 14.30029967144471
UTC large
Height (km)
Speed (km/s)
/
Latitude / Longitude
Inclination (degrees)
Orbital Period (minutes)
Azimuth
Elevation
Range (km)
Doppler Factor

Next 0 passes for location: London (51.5072 / 0.1276)

Sorry there are no passes over London.